Regional Weather Roundup
Issued by NWS

Home | Current Version | Previous Version | Text Only | Print | Product List | Glossary On
Versions: 1 2 3 4 5 6 7 8 9 10 11 12 13 14 15 16 17 18 19 20 21 22 23 24 25 26 27 28 29 30 31 32 33 34 35 36 37 38 39 40 41 42 43 44 45 46 47 48 49 50
000
ASUS43 KTOP 010759
RWRKS

WEATHER ROUNDUP FOR KANSAS
NATIONAL WEATHER SERVICE GOODLAND KS
300 AM CDT WED OCT 01 2014

NOTE:  "FAIR" INDICATES FEW OR NO CLOUDS BELOW 12,000 FEET WITH NO
SIGNIFICANT WEATHER AND/OR OBSTRUCTIONS TO VISIBILITY.

KSZ001>006-013>018-027>032-041>047-010900-
NORTHWEST KANSAS

CITY           SKY/WX    TMP DP  RH WIND       PRES   REMARKS
GOODLAND       MOCLDY    54  47  77 W9        29.81R
HAYS           CLOUDY    57  52  82 W7        29.72R VSB 1/2
HILL CITY      CLOUDY    64  62  93 NW6       29.73S FOG
RUSSELL        CLEAR     60  58  92 W7        29.69R FOG
$$

KSZ061>065-074>080-084>089-010900-
SOUTHWEST KANSAS

CITY           SKY/WX    TMP DP  RH WIND       PRES   REMARKS
DODGE CITY     PTCLDY    56  49  77 N6        29.74S
GARDEN CITY    PTCLDY    60  45  57 NE6       29.74S
GREAT BEND     CLEAR     61  54  77 SW8       29.72S
LIBERAL        PTCLDY    64  45  48 E7        29.74F
$$

KSZ066>073-081>083-090>101-010900-
SOUTHEAST KANSAS

CITY           SKY/WX    TMP DP  RH WIND       PRES   REMARKS
CHANUTE        MOCLDY    69  61  75 SE10      29.77F
COFFEYVILLE    MOCLDY    69  62  78 S8        29.77F
HUTCHINSON     MOCLDY    69  62  78 S6        29.72S
MEDICINE LODGE   N/A     68  58  70 E6        29.71S
NEWTON         CLOUDY    70  63  78 SW6       29.76S
PARSONS        CLEAR     70  62  76 SE6       29.78F
WICHITA INTL   CLOUDY    71  64  78 S9        29.72S
WICHITA JABRA  CLOUDY    71  64  78 S14       29.73S
WINFIELD       MOCLDY    71  64  78 S12       29.74S
$$

KSZ007>012-019>026-033>040-048>060-102>105-010900-
NORTHEAST KANSAS

CITY           SKY/WX    TMP DP  RH WIND       PRES   REMARKS
CONCORDIA      PTCLDY    64  64 100 CALM      29.68R
EMPORIA        CLOUDY    70  63  78 S16       29.73S
LAWRENCE       CLOUDY    71  60  68 S15       29.73F
MANHATTAN      LGT RAIN  69  66  90 S20G30    29.69F
OLATHE IND     MOCLDY    67  61  81 S13       29.77F
OLATHE EXE     MOCLDY    66  60  81 S13       29.76F
SALINA         LGT RAIN  70  65  84 S13       29.68S
TOPEKA BILLARD CLOUDY    74  62  66 S15G22    29.72R
TOPEKA FORBES  CLOUDY    72  61  68 S16G24    29.72S
$$


USA.gov is the U.S. government's official web portal to all federal, state and local government web resources and services.